Location: Cortina d'Ampezzo
(46.5405°N, 12.1357°E)
Time: 04:22:17
(UTC+01:00)

Tiangong - Visible Passes

Search period start: 21 January 2026 00:00
Search period end: 31 January 2026 00:00
Orbit: 378 x 393 km, 41.5° (Epoch: 20 January)

Date Brightness Start Highest point End Pass type
(mag) Time Alt. Az. Time Alt. Az. Time Alt. Az.
21 Jan 1.3 04:55:29 10° ESE 04:55:29 10° ESE 04:55:32 10° ESE visible
21 Jan -0.5 06:27:43 13° SW 06:30:06 29° S 06:32:57 10° ESE visible
22 Jan -0.1 05:31:12 24° SSE 05:31:12 24° SSE 05:33:27 10° ESE visible
22 Jan -0.6 07:04:21 10° WSW 07:07:13 32° S 07:10:07 10° ESE visible
23 Jan -0.8 06:06:47 25° SW 06:07:49 32° S 06:10:43 10° ESE visible
24 Jan 0.6 05:10:02 18° ESE 05:10:02 18° ESE 05:11:11 10° ESE visible
24 Jan -0.6 06:42:15 11° WSW 06:44:49 28° S 06:47:37 10° SE visible
25 Jan -0.8 05:45:26 31° S 05:45:26 31° S 05:48:11 10° ESE visible
26 Jan 1.4 04:48:34 10° ESE 04:48:34 10° ESE 04:48:36 10° ESE visible
26 Jan -0.4 06:20:47 17° SW 06:22:10 23° SSW 06:24:44 10° SE visible
27 Jan 0.1 05:23:52 20° SSE 05:23:52 20° SSE 05:25:19 10° SE visible
27 Jan 0.4 06:57:25 10° SW 06:58:47 12° SSW 07:00:10 10° S visible
28 Jan -0.1 05:59:08 17° SSW 05:59:13 17° SSW 06:01:24 10° SSE visible
